Preview of NWS' New Version of Forecast
This preview is not operational and should not be used for support decisions.

Regional Weather Roundup (RWR)

Issued by National Weather Service (NWS)

                            
000
ASUS45 KCYS 181510
RWRWY 

WYOMING REGIONAL WEATHER ROUNDUP
NATIONAL WEATHER SERVICE CHEYENNE WY
900 AM MDT MON MAR 18 2019

NOTE:  "FAIR" INDICATES FEW OR NO CLOUDS BELOW 12,000 FEET
WITH NO SIGNIFICANT WEATHER AND/OR OBSTRUCTIONS TO VISIBILITY.

WYZ001-181600-
YELLOWSTONE NATIONAL PARK
  
CITY           SKY/WX    TMP DP  RH WIND       PRES   REMARKS
LK YELLOWSTONE   N/A      5   1  83 SE3       30.28R                  
W YELLOWSTONE  NOT AVBL                                               

$$
WYZ002>013-054>058-071-098>099-181600-
NORTHERN WYOMING
  
CITY           SKY/WX    TMP DP  RH WIND       PRES   REMARKS
JACKSON        FAIR       9   3  77 NE7       30.28R WCI  -2          
CODY           FAIR      29  22  75 S5        30.28S WCI  24          
GREYBULL       CLOUDY    28  25  88 SE3       30.28R                  
WORLAND        PTSUNNY   30  27  88 W3        30.28R                  
SHERIDAN       FAIR      28  24  85 S5        30.27S WCI  23          
BUFFALO        FAIR      34  23  64 NW7       30.22R WCI  28          
GILLETTE       FAIR      32  26  78 S8        30.24S WCI  25          
HULETT         FAIR      28  19  69 W7        30.26  WCI  21          
NEWCASTLE      PTSUNNY   27  21  80 CALM      30.29                   

$$
WYZ014>020-022>026-101>103-181600-
CENTRAL WYOMING
  
CITY           SKY/WX    TMP DP  RH WIND       PRES   REMARKS
BIG PINEY      FAIR       6   3  87 NW6       30.25R WCI  -4          
PINEDALE       FAIR       5   0  78 NW7       30.25  WCI  -7          
DUBOIS         FAIR      21  12  68 NW10      30.22  WCI  10          
LANDER         FAIR      30  20  66 NW3       30.24R                  
RIVERTON       FAIR      28  21  75 N5        30.24R WCI  23          
CASPER         FAIR      23  21  92 W3        30.23S                  
DOUGLAS        FAIR      27  24  89 SE5       30.24S WCI  22          

$$
WYZ021-027>030-104>119-181600-
SOUTHERN WYOMING
  
CITY           SKY/WX    TMP DP  RH WIND       PRES   REMARKS
EVANSTON       FAIR      20   8  60 E7        30.21R WCI  11          
KEMMERER       FAIR      14   9  79 N7        30.23  WCI   4          
ROCK SPRINGS   FAIR      19  17  92 W5        30.23R WCI  12          
DIXON          FAIR      13   6  72 SE6       30.26R WCI   4          
RAWLINS        FAIR      17  16  95 CALM      30.22S FOG              
SARATOGA       FAIR      18   9  68 CALM      30.22R                  
LARAMIE        FAIR      13  10  88 SW7       30.19S WCI   3          
CHEYENNE       FAIR      28  24  85 S9        30.22F WCI  19          
TORRINGTON     FAIR      30  25  81 SE8       30.27F WCI  22          
PINE BLUFFS    FAIR      30  25  80 S9        30.26F WCI  22          

$$